sat.trackr.live / text

‹ back to catalog

STARLINK-34031

NORAD 63912 · 2025-095Y

PAYLOAD ACTIVE UNKNOWN

§ Identity

Operator
Country
US
Launch date
2025-05-10
Launch site
AFETR
Launch vehicle
Mass (kg)
RCS (m²)

Purposes: comms

External: N2YO · Heavens-Above · Gunter

§ Orbital elements

Epoch: 2026-09-20T23:27:55.138464Z

Period
94.27 min
Inclination
42.9991°
Eccentricity
0.0000880
Mean motion
15.27570322 rev/d
Perigee alt
482.5 km
Apogee alt
483.7 km
Semi-major
6,861.2 km
B*
3.7326e-4
RAAN
153.4085°
Arg perigee
260.6136°
Mean anomaly
99.4616°
Rev number
7,764

§ Raw data

STARLINK-340311 63912U 25095Y   26263.97772151  .00010020  00000+0  37326-3 0  99962 63912  42.9991 153.4085 0000880 260.6136  99.4616 15.27570322 77646

JSON: /api/v1/satellites/63912 · /tle

For live sub-satellite position, see the globe view (requires WebGL).

§ Visibility from observer

Set your observer location to see the next 7 days of passes ≥ 10°. The values pass through the URL so the page stays shareable.

No JS? Fill the form by hand. The geolocation button needs JavaScript.